STARLINK-1821, 46718

Orbit data source: Space-Track

STARLINK-1821, 46718 is a payload satellite owned by SpaceX/Seattle (US) in LEO that was launched on Sun, 18 Oct 2020 UTC via an FALCON 9 launch vehicle from the Air Force Eastern Test Range (AFETR). Payload-class satellites include a variety of spacecraft equipped with specific instruments for various scientific and technological missions. These include communications satellites like Starlink; space stations such as the ISS; scientific satellites like the Hubble; Earth observation satellites from companies like Planet Labs, Umbra, and HawkEye 360; GPS; miniature CubeSats for education and research; and military/defense satellites.

Loading next visibility...
Identifier
46718, 2020-073BA
Orbit
LEO
Country
Flag of USUS
Related business
Manufacturer
SpaceX/Seattle
Mission
Partially operational Commercial Communications
Bus & Motor
STARLINK, Unknown motor
Mass
260 kg wet, ~248 kg dry
Launch date (UTC)
2020-10-18 (5 years ago)
Launch vehicle
FALCON 9
Launch site
Air Force Eastern Test Range (AFETR)
Object type
Payload
Rocket body
Debris
Shape & HBR
Box + 1 Pan, 10.1 m
Radar Cross Section
13.562 m², Large (>1 m²)

Expand to show TLE details & history
Last TLE update: 6 hours ago

TLE from 6 hours ago
0 STARLINK-1821
1 46718U 20073BA  26037.16668981  .00008991  00000-0  28656-3 0  9998
2 46718  53.0509  14.5797 0006969  45.5837 329.8709 15.33290943  5838
Epoch: 2026-02-06T04:00Z
TLE epoch observation values (Epoch: 2026-02-06T04:00:01.999Z)
Latitude
12.26085°
Longitude
-172.38193°
Altitude
462.002 km
Speed
7.64 km/s
True Right ascension
01h 35m 44s
True Declination
12° 11' 12"
Sunlit
Object was in daylight at epoch
Visualization orbit readout
Latitude
Unknown
Longitude
Unknown
Altitude
Unknown
Speed
Unknown
Apparent Right ascension
Unknown
Apparent Declination
Unknown
Sunlit
N/A
Visualization observer readout
Local Sidereal Time
11:51:52
Azimuth
Unknown
Elevation
Unknown
Doppler factor
Unknown
Orbital elements
Apogee altitude
471.046 km
Perigee altitude
461.506 km
Semi-major axis
6,844.413 km
Eccentricity
0.0007
Inclination
53.0509°
RAAN
14.5797°
Arg. of periapsis
45.5837°
True anomaly
329.83078°
Mean anomaly
329.8709°
Eccentric anomaly
329.85085°
Mean motion
3.833 °/min
Orbital period
93.92 mins
BSTAR
0.00028656
Loading maneuver chart data...
Computing Atmospheric mass density...
Loading historical data...
Loading historical data...
Loading historical data...
Loading historical data...
Loading historical data...
Loading historical data...
Loading historical data...

Documentation

Showing up to 5 results
|